Flag for Marshall Islands Weather past 2 weeks in Majuro, Marshall Islands

Now
84 °F

Partly cloudy.


Feels Like: 94 °F
Forecast: 83 / 87 °F
Wind: 6 mph from East

Location: Majuro Atoll

Current Time: Aug 5, 2015 at 11:15:00 PM

Latest Report: Aug 5, 2015 at 10:54 PM


Visibility: 15 mi

Pressure: 29.80 "Hg

Humidity: 81%

Dew point: 77 °F

Location of MajuroLocation

Historic Weather in Majuro — Graph

°F

Majuro temperature yesterday

Maximum temperature yesterday: 88 °F (at 11:51 AM)
Minimum temperature yesterday: 81 °F (at 5:55 AM)
Average temperature yesterday: 84 °F

Past Weeks' High & Low Weather Summary

 TemperatureHumidityPressure
High89 °F (Jul 31, 12:50 PM)91% (Jul 23, 7:53 PM)29.90 "Hg (Jul 23, 7:53 PM)
Low79 °F (Jul 23, 6:55 PM)71% (Jul 28, 1:50 PM)29.65 "Hg (Jul 31, 4:50 PM)
Average84 °F82%29.77 "Hg
* Reported Jul 21 9:55 PM — Aug 5 9:51 PM, Majuro, Weather by CustomWeather, © 2015

Note: Actual official high and low records may vary slightly from our data, if they occured in-between our weather recording intervals... More about our weather records

Advertising

Majuro weather history for previous 24 hours

 ConditionsComfort  
Time TempWeatherWind HumidityBarometerVisibility
9:51 PM
Wed, Aug 5
84 °FPassing clouds.6 mph84%29.78 "Hg15 mi
8:51 PM83 °FPassing clouds.6 mph82%29.77 "Hg15 mi
7:51 PM85 °FScattered clouds.8 mph80%29.75 "Hg15 mi
6:53 PM85 °FScattered clouds.6 mph79%29.74 "Hg15 mi
5:53 PM85 °FScattered clouds.5 mph78%29.72 "Hg15 mi
4:51 PM87 °FScattered clouds.6 mph73%29.72 "Hg15 mi
3:52 PM88 °FScattered clouds.7 mph73%29.70 "Hg20 mi
2:52 PM88 °FScattered clouds.6 mph73%29.72 "Hg20 mi
1:51 PM88 °FScattered clouds.6 mph75%29.73 "Hg20 mi
12:51 PM88 °FPassing clouds.7 mph76%29.75 "Hg20 mi
11:53 AM87 °FPassing clouds.7 mph75%29.76 "Hg20 mi
10:51 AM86 °FPassing clouds.9 mph77%29.78 "Hg20 mi
9:52 AM86 °FPassing clouds.8 mph79%29.78 "Hg20 mi
8:51 AM85 °FBroken clouds.7 mph80%29.77 "Hg15 mi
7:50 AM84 °FBroken clouds.5 mph84%29.75 "Hg15 mi
6:51 AM80 °FPartly cloudy.6 mph88%29.75 "Hg15 mi
5:52 AM83 °FPartly cloudy.7 mph81%29.73 "Hg15 mi
4:51 AM83 °FPartly cloudy.5 mph79%29.72 "Hg15 mi
3:53 AM83 °FMostly cloudy.7 mph81%29.72 "Hg15 mi
2:52 AM83 °FMostly cloudy.7 mph81%29.72 "Hg15 mi
1:54 AM83 °FMostly cloudy.7 mph82%29.73 "Hg15 mi
12:51 AM83 °FMostly cloudy.7 mph81%29.75 "Hg15 mi
11:53 PM
Tue, Aug 4
83 °FMostly cloudy.9 mph81%29.77 "Hg15 mi
Weather by CustomWeather, © 2015

See weather overviewHow to use our weather pages